This demonstration page uses our WeatherBlox Daily Observations layout. Learn more.

Hourly Observations for December 23, 2016

Temp ( °F °C ) Dew Point ( °F °C ) Humidity (%) Winds ( mph kmh ) Pressure ( in mb ) Visibility ( mi km ) Precip ( " mm )
12:54 am 00:54 Cloudy 36 2.2 29 -1.7 76 76 S 12 19 30.19 1022 10 16.0934 0 0.0254
1:54 am 01:54 Cloudy 36 2.2 30 -1.1 79 79 SSW 5 7 30.19 1023 10 16.0934 0.01 0.254
2:54 am 02:54 Cloudy 35 1.7 28 -2.2 76 76 S 13 20 30.15 1021 10 16.0934 0 0
3:54 am 03:54 Cloudy with Light Rain 36 2.2 26 -3.3 67 67 S 12 19 30.11 1020 10 16.0934 0 0.0254
4:54 am 04:54 Cloudy 36 2.2 25 -3.9 64 64 S 13 20 30.06 1018 10 16.0934 0 0.0254
5:54 am 05:54 Cloudy with Light Snow 34 1.1 26 -3.3 73 73 SSE 12 19 30.02 1017 7 11.26538 0 0.0254
6:54 am 06:54 Cloudy with Light Rain 35 1.7 26 -3.3 70 70 SSE 12 19 29.99 1016 10 16.0934 0.01 0.254
7:54 am 07:54 Cloudy 35 1.7 28 -2.2 76 76 S 10 17 29.97 1015 10 16.0934 0.01 0.254
8:54 am 08:54 Cloudy with Light Rain 35 1.7 30 -1.1 82 82 SSE 9 15 29.95 1014 10 16.0934 0 0.0254
9:54 am 09:54 Cloudy with Light Rain 36 2.2 30 -1.1 79 79 SSE 15 24 29.91 1013 9 14.48406 0 0.0254
10:54 am 10:54 Cloudy 37 2.8 32 0 82 82 S 12 19 29.91 1013 10 16.0934 0 0.0254
11:54 am 11:54 Cloudy 38 3.3 32 0 79 79 S 13 20 29.86 1011 10 16.0934 0 0
12:54 pm 12:54 Cloudy with Light Rain 38 3.3 32 0 79 79 SSW 10 17 29.83 1010 10 16.0934 0 0.0254
1:18 pm 13:18 Cloudy with Light Rain 37 3 34 1 87 87 SSW 8 13 29.83 1010 5 8.0467 0 0
1:54 pm 13:54 Cloudy with Light Rain 37 2.8 33 0.6 86 86 SW 8 13 29.83 1010 8 12.87472 0.03 0.762
2:54 pm 14:54 Cloudy with Light Rain 37 2.8 34 1.1 89 89 W 5 7 29.82 1010 9 14.48406 0.06 1.524
3:31 pm 15:31 Mostly Cloudy 37 2.8 34 1.1 89 89 W 6 9 29.85 1011 10 16.0934 0 0.0254
3:54 pm 15:54 Partly Cloudy 37 2.8 34 1.1 89 89 WSW 6 9 29.86 1011 10 16.0934 0 0.0254
4:51 pm 16:51 Mostly Cloudy 37 3 34 1 87 87 WNW 9 15 29.91 1013 10 16.0934 0 0
4:54 pm 16:54 Mostly Cloudy 37 2.8 33 0.6 86 86 WNW 9 15 29.9 1013 10 16.0934 0 0
5:20 pm 17:20 Cloudy 36 2 32 0 87 87 WNW 12 19 29.94 1014 10 16.0934 0 0
5:47 pm 17:47 Partly Cloudy 35 1.7 32 0 89 89 WNW 3 6 29.94 1014 10 16.0934 0 0
5:54 pm 17:54 Mostly Clear 35 1.7 32 0 89 89 Calm 29.9 1013 10 16.0934 0 0
6:54 pm 18:54 Clear 33 0.6 31 -0.6 92 92 Calm 29.93 1013 10 16.0934 0 0
7:44 pm 19:44 Clear with Mist and Fog 30 -1.1 29 -1.7 96 96 S 3 6 29.97 1015 1.75 2.816345 0 0
7:54 pm 19:54 Clear with Mist and Fog 26 -3.3 26 -3.3 100 100 SSE 3 6 29.95 1014 1 1.60934 0 0
8:03 pm 20:03 Clear 28 -2 27 -3 93 93 S 5 7 29.97 1015 10 16.0934 0 0
8:54 pm 20:54 Clear 26 -3.3 26 -3.3 100 100 S 3 6 29.96 1015 10 16.0934 0 0
9:54 pm 21:54 Clear 25 -3.9 24 -4.4 96 96 Calm 29.98 1015 10 16.0934 0 0
10:01 pm 22:01 Mostly Cloudy with Freezing Fog 24 -4.4 23 -5 96 96 Calm 30.03 1017 0.25 0.402335 0 0
10:17 pm 22:17 Mostly Cloudy with Freezing Fog 24 -4.4 23 -5 96 96 Calm 30.06 1018 0.25 0.402335 0 0
10:24 pm 22:24 Mostly Cloudy with Freezing Fog 23 -5 22 -5.6 96 96 Calm 30.06 1018 0.25 0.402335 0 0
10:52 pm 22:52 Clear with Mist and Fog 21 -6 21 -6 100 100 S 5 7 30.06 1018 0.75 1.207005 0 0
10:54 pm 22:54 Mostly Cloudy with Mist and Fog 22 -5.6 21 -6.1 96 96 S 5 7 30.01 1016 0.75 1.207005 0 0
11:07 pm 23:07 Mostly Cloudy with Freezing Fog 22 -5.6 20 -6.7 92 92 Calm 30.09 1019 0.25 0.402335 0 0
11:12 pm 23:12 Mostly Cloudy with Mist and Fog 25 -4 21 -6 86 86 SW 3 6 30.09 1019 1 1.60934 0 0
11:14 pm 23:14 Mostly Clear with Mist and Fog 25 -4 21 -6 86 86 WSW 3 6 30.09 1019 2 3.21868 0 0
11:21 pm 23:21 Mostly Clear with Mist and Fog 25 -4 23 -5 93 93 Calm 30.09 1019 6 9.65604 0 0
11:45 pm 23:45 Clear with Mist and Fog 23 -5 22 -5.6 96 96 S 3 6 30.09 1019 2.5 4.02335 0 0
11:52 pm 23:52 Clear with Mist and Fog 23 -5 21 -6 93 93 S 3 6 30.09 1019 5 8.0467 0 0
11:54 pm 23:54 Clear with Mist and Fog 22 -5.6 22 -5.6 100 100 S 3 6 30.05 1018 5 8.0467 0 0

Powered by AerisWeather